Location: Sungai Laei
(2.6000°N, 113.7167°E)
Time: 10:33:01
(UTC+00:00)

Cosmos 1758 Rocket - Pass Details

Date: 22 May 2022
Orbit: 602 x 635 km, 82.5° (Epoch: 06 July)

Event Time Altitude Azimuth Distance (km) Brightness Sun altitude
Exits shadow 20:47:13 20° 177° (S) 1,467 5.3 -21.1°
Maximum altitude 20:50:17 75° 95° (E) 650 3.7 -20.4°
Drops below altitude 10° 20:54:41 10° 8° (N) 1,984 6.5 -19.4°
Sets 20:56:54 0° 7° (N) 2,883 7.4 -18.9°
